Location: Taupo
(38.6830°S, 176.0830°E)
Time: 14:42:50
(UTC+13:00)

Resurs 1-3 - Pass Details

Date: 24 January 2019
Orbit: 631 x 632 km, 98.0° (Epoch: 19 February)

Event Time Altitude Azimuth Distance (km) Brightness Sun altitude
Rises 21:49:28 0° 162° (SSE) 2,962 7.3 -12.8°
Reaches altitude 10° 21:51:46 10° 156° (SSE) 2,046 6.4 -13.2°
Maximum altitude 21:56:05 49° 81° (E) 827 3.8 -13.8°
Enters shadow 21:59:42 14° 8° (N) 1,765 5.5 -14.4°
